Weather History for Aberdeen, SD

Change the Weather History Date:

Saturday, February 2, 2013

  Actual Average Record
Temperature  
Mean Temperature 20 °F 14 °F  
Max Temperature 34 °F 24 °F 60 °F (1991)
Min Temperature 6 °F 3 °F -39 °F (1917)
Degree Days  
Heating Degree Days 45 51  
Month to date heating degree days 117 103  
Since 1 July heating degree days 5130 5237  
Cooling Degree Days 0 0  
Month to date cooling degree days 0 0  
Year to date cooling degree days 0 0  
Moisture  
Dew Point 11 °F    
Average Humidity 77    
Maximum Humidity 84    
Minimum Humidity 70    
Precipitation  
Precipitation 0.04 in 0.02 in 0.36 in (2003)
Month to date precipitation 0.04 0.03  
Year to date precipitation 0.82 0.50  
Snow  
Snow 0.60 in - - ()
Month to date snowfall 0.6  
Since 1 July snowfall 24.1  
Snow Depth 6.00 in    
Sea Level Pressure  
Sea Level Pressure 30.06 in    
Wind  
Wind Speed 13 mph (SW)    
Max Wind Speed 40 mph    
Max Gust Speed 51 mph    
Visibility 6 miles    
Events Fog , Snow    
T = Trace of Precipitation, MM = Missing Value Source: NWS Daily Summary

Daily Weather History Graph

Daily Weather History Graph

Search for Another Location

Airport:

Trip Planner

Search our weather history database for the weather conditions in past years. The results will help you decide how hot, cold, wet, or windy it might be!

Date:

Astronomy

Feb. 02, 2013 Rise Set
Actual Time 7:52 AM CST 5:42 PM CST
Civil Twilight 7:21 AM CST 6:13 PM CST
Nautical Twilight 6:46 AM CST 6:49 PM CST
Astronomical Twilight 6:11 AM CST 7:23 PM CST
Moon 12:11 AM CST (2/2) 10:41 AM CST (2/2)
Length of Visible Light 10h 52m
Length of Day
9h 49m
Waning Gibbous, 59% of the Moon is Illuminated
Feb 2
Waning Gibbous
Feb 3
Last Quarter
Feb 10
New
Feb 17
First Quarter
Feb 25
Full

Hourly Weather History & Observations

Time (CST) Temp. Windchill Dew Point Humidity Pressure Visibility Wind Dir Wind Speed Gust Speed Precip Events Conditions
12:53 AM 14.0 °F 2.0 °F 7.0 °F 74% 30.17 in 10.0 mi NNE 9.2 mph - N/A   Overcast
1:53 AM 12.9 °F 3.8 °F 7.0 °F 77% 30.18 in 10.0 mi NNE 5.8 mph - N/A   Overcast
2:53 AM 12.0 °F 1.5 °F 6.1 °F 77% 30.20 in 10.0 mi NE 6.9 mph - N/A   Overcast
3:53 AM 10.9 °F 4.7 °F 3.9 °F 73% 30.21 in 10.0 mi NNE 3.5 mph - N/A   Overcast
4:53 AM 10.0 °F 1.8 °F 3.0 °F 73% 30.21 in 10.0 mi NE 4.6 mph - N/A   Overcast
5:53 AM 8.6 °F 0.1 °F 1.4 °F 73% 30.12 in 10.0 mi NE 4.6 mph - N/A   Overcast
6:53 AM 8.1 °F - 1.9 °F 76% 30.20 in 9.0 mi Calm Calm - 0.00 in Snow Light Snow
7:25 AM 6.8 °F -2.0 °F 1.4 °F 79% 30.11 in 2.5 mi SE 4.6 mph - 0.00 in Snow Light Snow
7:32 AM 6.8 °F -2.0 °F 1.4 °F 79% 30.11 in 3.0 mi SSE 4.6 mph - 0.00 in Snow Light Snow
7:48 AM 6.8 °F -0.1 °F 1.4 °F 79% 30.10 in 9.0 mi SSE 3.5 mph - 0.00 in   Overcast
7:53 AM 7.0 °F -1.7 °F 1.9 °F 80% 30.19 in 10.0 mi SSE 4.6 mph - 0.00 in   Overcast
8:30 AM 8.6 °F -1.3 °F 3.2 °F 79% 30.10 in 10.0 mi SSE 5.8 mph - N/A   Overcast
8:53 AM 9.0 °F -2.2 °F 3.0 °F 77% 30.17 in 9.0 mi South 6.9 mph - 0.00 in Snow Light Snow
9:11 AM 8.6 °F -1.3 °F 3.2 °F 79% 30.09 in 2.5 mi South 5.8 mph - 0.00 in Snow Light Snow
9:27 AM 10.4 °F 0.8 °F 3.2 °F 73% 30.09 in 1.8 mi South 5.8 mph - 0.00 in Snow Light Snow
9:37 AM 10.4 °F 2.2 °F 5.0 °F 79% 30.10 in 1.0 mi South 4.6 mph - 0.01 in Snow Light Snow
9:53 AM 10.0 °F -0.9 °F 5.0 °F 80% 30.17 in 1.5 mi South 6.9 mph - 0.01 in Snow Light Snow
10:02 AM 10.4 °F -1.5 °F 5.0 °F 79% 30.09 in 1.8 mi SSE 8.1 mph - 0.00 in Snow Light Snow
10:09 AM 10.4 °F -0.4 °F 5.0 °F 79% 30.09 in 2.5 mi SSE 6.9 mph - 0.00 in Snow Light Snow
10:17 AM 10.4 °F -1.5 °F 5.0 °F 79% 30.09 in 5.0 mi SSE 8.1 mph - 0.00 in   Haze
10:28 AM 10.4 °F -1.5 °F 5.0 °F 79% 30.09 in 10.0 mi South 8.1 mph - 0.00 in   Overcast
10:53 AM 10.9 °F -2.6 °F 6.1 °F 81% 30.14 in 10.0 mi SSE 10.4 mph - 0.00 in   Overcast
11:53 AM 12.9 °F -2.2 °F 8.1 °F 81% 30.09 in 10.0 mi South 13.8 mph - 0.00 in   Overcast
12:35 PM 15.8 °F -0.2 °F 8.6 °F 73% 29.98 in 10.0 mi South 17.3 mph - N/A   Mostly Cloudy
12:44 PM 15.8 °F 0.9 °F 10.4 °F 79% 29.98 in 10.0 mi South 15.0 mph - N/A   Overcast
12:53 PM 15.1 °F -0.6 °F 10.0 °F 80% 30.04 in 1.8 mi South 16.1 mph - 0.00 in Snow Light Snow
12:58 PM 15.8 °F 0.9 °F 10.4 °F 79% 29.97 in 0.8 mi South 15.0 mph - 0.00 in Snow Light Snow
1:08 PM 15.8 °F 1.4 °F 10.4 °F 79% 29.96 in 0.5 mi South 13.8 mph - 0.01 in Fog , Snow Snow
1:22 PM 15.8 °F 2.1 °F 10.4 °F 79% 29.95 in 1.5 mi South 12.7 mph - 0.01 in Snow Light Snow
1:26 PM 15.8 °F 1.4 °F 12.2 °F 86% 29.95 in 2.5 mi South 13.8 mph - 0.02 in Snow Light Snow
1:30 PM 17.6 °F 3.7 °F 12.2 °F 79% 29.94 in 1.2 mi South 13.8 mph - 0.02 in Snow Light Snow
1:33 PM 17.6 °F 3.2 °F 12.2 °F 79% 29.94 in 0.8 mi South 15.0 mph - 0.02 in Snow Light Snow
1:45 PM 17.6 °F 5.0 °F 12.2 °F 79% 29.93 in 1.5 mi South 11.5 mph - 0.02 in Snow Light Snow
1:53 PM 17.1 °F 4.3 °F 12.0 °F 81% 30.00 in 1.2 mi SSW 11.5 mph - 0.02 in Snow Light Snow
2:02 PM 17.6 °F 6.4 °F 12.2 °F 79% 29.93 in 2.0 mi SSW 9.2 mph - 0.01 in Snow Light Snow
2:06 PM 17.6 °F 5.0 °F 12.2 °F 79% 29.93 in 3.0 mi South 11.5 mph - 0.01 in Snow Light Snow
2:47 PM 19.4 °F 9.5 °F 15.8 °F 86% 29.91 in 10.0 mi SW 8.1 mph - 0.01 in   Overcast
2:53 PM 19.9 °F 7.9 °F 16.0 °F 85% 29.99 in 10.0 mi SSW 11.5 mph - 0.01 in   Overcast
3:02 PM 21.2 °F 10.1 °F 17.6 °F 86% 29.91 in 10.0 mi SSW 10.4 mph - N/A   Overcast
3:13 PM 24.8 °F 14.0 °F 19.4 °F 80% 29.90 in 10.0 mi SSW 11.5 mph - N/A   Mostly Cloudy
3:53 PM 25.0 °F 14.8 °F 19.9 °F 81% 29.98 in 10.0 mi West 10.4 mph - N/A   Mostly Cloudy
4:14 PM 33.8 °F 22.2 °F 24.8 °F 70% 29.91 in 10.0 mi WNW 20.7 mph 27.6 mph N/A   Mostly Cloudy
4:53 PM 32.0 °F 17.2 °F 25.0 °F 75% 30.00 in 3.0 mi NW 32.2 mph 39.1 mph 0.00 in   Partly Cloudy
4:58 PM 32.0 °F 17.6 °F 24.8 °F 75% 29.94 in 1.8 mi NW 29.9 mph 39.1 mph 0.00 in   Partly Cloudy
5:07 PM 30.2 °F 13.3 °F 24.8 °F 80% 29.96 in 0.8 mi NW 40.3 mph 50.6 mph 0.00 in   Mostly Cloudy
5:21 PM 28.4 °F 13.0 °F 23.0 °F 80% 29.97 in 1.0 mi NW 28.8 mph 44.9 mph 0.00 in   Overcast
5:30 PM 28.4 °F 13.3 °F 23.0 °F 80% 29.99 in 1.8 mi NW 27.6 mph 35.7 mph 0.00 in   Overcast
5:34 PM 28.4 °F 13.5 °F 23.0 °F 80% 29.99 in 2.0 mi NW 26.5 mph 35.7 mph 0.00 in   Overcast
5:45 PM 26.6 °F 9.6 °F 21.2 °F 80% 30.02 in 1.8 mi NW 33.4 mph 42.6 mph 0.00 in   Overcast
5:53 PM 26.1 °F 8.6 °F 19.9 °F 78% 30.09 in 1.2 mi NW 34.5 mph 40.3 mph 0.00 in   Overcast
5:58 PM 26.6 °F 9.3 °F 19.4 °F 74% 30.02 in 2.0 mi NNW 34.5 mph 44.9 mph 0.00 in   Overcast
6:09 PM 24.8 °F 8.4 °F 19.4 °F 80% 30.03 in 3.0 mi NNW 27.6 mph 40.3 mph 0.00 in   Overcast
6:16 PM 24.8 °F 7.1 °F 17.6 °F 74% 30.04 in 2.5 mi NW 33.4 mph 42.6 mph N/A Snow Blowing Snow
6:22 PM 24.8 °F 9.0 °F 17.6 °F 74% 30.04 in 3.0 mi NNW 25.3 mph 42.6 mph 0.00 in Snow Blowing Snow
6:53 PM 21.9 °F 2.9 °F 16.0 °F 78% 30.13 in 2.5 mi NNW 34.5 mph 44.9 mph 0.01 in   Overcast
6:56 PM 21.2 °F 3.0 °F 15.8 °F 80% 30.05 in 1.8 mi NNW 29.9 mph 44.9 mph 0.00 in   Overcast
7:02 PM 21.2 °F 3.9 °F 15.8 °F 80% 30.05 in 2.5 mi NNW 26.5 mph 40.3 mph 0.00 in Snow Blowing Snow
7:09 PM 21.2 °F 4.2 °F 15.8 °F 80% 30.05 in 6.0 mi NNW 25.3 mph 33.4 mph N/A Snow Blowing Snow
7:17 PM 21.2 °F 3.3 °F 14.0 °F 74% 30.05 in 4.0 mi NNW 28.8 mph 35.7 mph 0.00 in   Scattered Clouds
7:53 PM 19.0 °F 2.0 °F 12.0 °F 74% 30.16 in 10.0 mi NW 23.0 mph 27.6 mph 0.00 in   Clear
8:53 PM 17.1 °F 1.5 °F 10.0 °F 74% 30.18 in 10.0 mi NNW 17.3 mph - N/A   Clear
9:53 PM 14.0 °F -1.4 °F 8.1 °F 77% 30.20 in 10.0 mi NNW 15.0 mph - N/A   Clear
10:53 PM 12.0 °F -2.0 °F 5.0 °F 73% 30.23 in 10.0 mi NW 11.5 mph - N/A   Clear
11:53 PM 9.0 °F -5.1 °F 3.0 °F 77% 30.24 in 10.0 mi NW 10.4 mph - N/A   Clear